Location: Newark
(52.8300°N, 8.0000°E)
Time: 06:30:37
(UTC+00:00)

STARLINK-1144 - Pass Details

Date: 29 January 2020
Orbit: 548 x 551 km, 53.0° (Epoch: 24 February)

Event Time Altitude Azimuth Distance (km) Brightness Sun altitude
Rises 16:49:36 0° 281° (WNW) 2,725 8.3 -6.7°
Reaches altitude 10° 16:51:51 10° 280° (W) 1,831 7.3 -7.1°
Maximum altitude 16:56:00 76° 196° (SSW) 572 3.8 -7.6°
Drops below altitude 10° 17:00:09 10° 110° (ESE) 1,829 5.8 -8.2°
Enters shadow 17:01:14 - 110° (ESE) 2,257 6.3 -8.4°
